Beaufort MCAS, SC

9:05 AM EDT on August 23, 2017 (GMT -0400)
Beaufort Marine Corps Air Station

Weather History for KNBC - December, 2013

Change the Weather History Date:

Saturday, December 14, 2013

  Actual Average Record
Temperature  
Mean Temperature 59 °F -  
Max Temperature 70 °F 63 °F 80 °F (1948)
Min Temperature 48 °F 44 °F 18 °F (1960)
Degree Days  
Heating Degree Days 6    
Growing Degree Days 9 (Base 50)    
Moisture  
Dew Point 59 °F    
Average Humidity 87    
Maximum Humidity 94    
Minimum Humidity 71    
Precipitation  
Precipitation 0.69 in - - ()
Sea Level Pressure  
Sea Level Pressure 29.97 in    
Wind  
Wind Speed 7 mph (SSW)    
Max Wind Speed 15 mph    
Max Gust Speed 26 mph    
Visibility 7 miles    
Events Rain , Thunderstorm    
Averages and records for this station are not official NWS values.
T = Trace of Precipitation, MM = Missing Value Source: NWS Daily Summary

Daily Weather History Graph

Daily Weather History Graph

Search for Another Location

Airport or City:

Trip Planner

Search our weather history database for the weather conditions in past years. The results will help you decide how hot, cold, wet, or windy it might be!

Date:

Astronomy

Dec. 14, 2013 Rise Set
Actual Time 7:16 AM EST 5:18 PM EST
Civil Twilight 6:49 AM EST 5:45 PM EST
Nautical Twilight 6:18 AM EST 6:16 PM EST
Astronomical Twilight 5:48 AM EST 6:46 PM EST
Moon 3:34 PM EST (12/14) 4:41 AM EST (12/14)
Length of Visible Light 10h 56m
Length of Day
10h 02m
Waxing Gibbous, 93% of the Moon is Illuminated
Dec 14
Waxing Gibbous
Dec 17
Full
Dec 25
Last Quarter
Jan 1
New
Jan 7
First Quarter

Hourly Weather History & Observations

Time (EST) Temp. Dew Point Humidity Pressure Visibility Wind Dir Wind Speed Gust Speed Precip Events Conditions
12:56 AM 48.9 °F 39.9 °F 71% 30.20 in 10.0 mi ENE 6.9 mph - N/A   Clear
1:56 AM 51.1 °F 42.1 °F 71% 30.19 in 10.0 mi Calm Calm - N/A   Mostly Cloudy
2:56 AM 51.1 °F 43.0 °F 74% 30.18 in 10.0 mi NE 4.6 mph - N/A   Clear
3:56 AM 53.1 °F 45.0 °F 74% 30.17 in 10.0 mi Variable 4.6 mph - N/A   Clear
4:56 AM 53.1 °F 46.0 °F 77% 30.14 in 10.0 mi ENE 3.5 mph - N/A   Clear
5:56 AM 54.0 °F 46.9 °F 77% 30.14 in 10.0 mi NE 3.5 mph - N/A   Scattered Clouds
6:56 AM 54.0 °F 48.0 °F 80% 30.13 in 10.0 mi ENE 4.6 mph - N/A   Clear
7:56 AM 55.9 °F 50.0 °F 80% 30.15 in 10.0 mi ENE 3.5 mph - N/A   Mostly Cloudy
8:56 AM 57.0 °F 51.1 °F 81% 30.15 in 10.0 mi Calm Calm - N/A   Partly Cloudy
9:56 AM 60.1 °F 53.1 °F 78% 30.11 in 10.0 mi Calm Calm - N/A   Mostly Cloudy
10:56 AM 64.0 °F 57.0 °F 78% 30.06 in 10.0 mi SSE 4.6 mph - N/A   Overcast
11:56 AM 64.0 °F 60.1 °F 87% 30.01 in 5.0 mi Calm Calm - 0.01 in Rain Light Rain
12:35 PM 64.9 °F 62.1 °F 90% 29.98 in 2.0 mi SSW 10.4 mph - 0.10 in Rain Rain
12:43 PM 66.0 °F 63.0 °F 90% 29.97 in 5.0 mi SSW 11.5 mph 18.4 mph 0.11 in   Mostly Cloudy
12:56 PM 66.0 °F 63.0 °F 90% 29.96 in 5.0 mi South 5.8 mph - 0.11 in   Overcast
1:04 PM 64.9 °F 63.0 °F 93% 29.93 in 2.0 mi Variable 4.6 mph - 0.20 in Rain Heavy Rain
1:14 PM 64.9 °F 63.0 °F 93% 29.95 in 5.0 mi SW 15.0 mph - 0.21 in Rain Light Rain
1:27 PM 66.0 °F 64.0 °F 93% 29.94 in 1.0 mi SSW 11.5 mph 19.6 mph 0.26 in Rain Heavy Rain
1:46 PM 66.0 °F 64.0 °F 93% 29.93 in 4.0 mi SSW 10.4 mph 20.7 mph 0.37 in Rain Light Rain
1:50 PM 66.2 °F 64.4 °F 94% 29.93 in 4.0 mi SSW 11.5 mph 21.9 mph 0.37 in   Overcast
1:56 PM 66.9 °F 64.9 °F 93% 29.93 in 6.0 mi SSW 9.2 mph 21.9 mph 0.37 in   Overcast
2:56 PM 69.1 °F 66.0 °F 90% 29.90 in 6.0 mi SSW 15.0 mph 26.5 mph N/A   Overcast
3:56 PM 70.0 °F 64.9 °F 84% 29.89 in 6.0 mi SW 13.8 mph 23.0 mph N/A   Overcast
4:12 PM 69.1 °F 64.9 °F 87% 29.88 in 10.0 mi SSW 15.0 mph 21.9 mph N/A   Mostly Cloudy
4:56 PM 68.0 °F 64.0 °F 87% 29.88 in 10.0 mi SSW 12.7 mph 20.7 mph N/A   Scattered Clouds
5:51 PM 66.2 °F 64.4 °F 94% 29.89 in 2.0 mi SSW 11.5 mph 20.7 mph 0.05 in Rain Rain
5:56 PM 66.9 °F 64.0 °F 90% 29.89 in 5.0 mi SSW 12.7 mph - 0.05 in Rain Light Rain
6:12 PM 66.9 °F 64.0 °F 90% 29.89 in 6.0 mi SSW 12.7 mph 24.2 mph 0.01 in Rain , Thunderstorm Light Thunderstorms and Rain
6:31 PM 66.9 °F 64.9 °F 93% 29.88 in 6.0 mi SSW 12.7 mph 26.5 mph 0.03 in Rain Light Rain
6:38 PM 66.9 °F 64.9 °F 93% 29.88 in 6.0 mi SSW 12.7 mph 23.0 mph 0.04 in Rain Light Rain
6:56 PM 66.9 °F 64.9 °F 93% 29.88 in 6.0 mi SW 15.0 mph 20.7 mph 0.06 in Rain Light Rain
7:56 PM 66.9 °F 64.0 °F 90% 29.86 in 9.0 mi SSW 13.8 mph 24.2 mph 0.05 in Rain Light Rain
8:56 PM 66.9 °F 64.0 °F 90% 29.85 in 8.0 mi SSW 12.7 mph 21.9 mph 0.03 in Rain Light Rain
9:56 PM 66.9 °F 64.0 °F 90% 29.84 in 10.0 mi SW 10.4 mph 21.9 mph 0.01 in   Mostly Cloudy
10:29 PM 66.9 °F 64.0 °F 90% 29.84 in 10.0 mi WSW 12.7 mph - N/A   Mostly Cloudy
10:53 PM 66.2 °F 64.4 °F 94% 29.84 in 10.0 mi WSW 9.2 mph - N/A   Mostly Cloudy
10:56 PM 66.9 °F 64.0 °F 90% 29.84 in 10.0 mi WSW 9.2 mph - N/A   Mostly Cloudy
11:10 PM 66.9 °F 64.0 °F 90% 29.84 in 10.0 mi WSW 6.9 mph - N/A   Mostly Cloudy
11:56 PM 66.9 °F 64.0 °F 90% 29.84 in 10.0 mi West 10.4 mph - N/A   Overcast